#timestamp,LO_Frequency,Hit 
1499731215.8,286047015.2,N
1499731235.7,286047014.9,N
1499731255.5,286047014.3,N
1499731275.4,286047014.4,N
1499731295.2,286047015.3,N
1499731315.0,286047014.9,N
1499731315.9,286047014.9,N
1499731335.8,286047015.0,N
1499731355.6,286047013.2,N
1499731375.4,286047012.5,N
1499731395.3,286047012.6,N
1499731415.1,286047015.6,N
1499731435.9,286047013.1,N
1499731455.7,286047013.7,N
1499731475.5,286047015.2,N
1499731495.4,286047012.7,N
1499731515.2,286047015.6,N
1499731535.0,286047015.6,N
1499731535.9,286047015.6,N
1499731555.8,286047012.8,N
1499731575.6,286047012.8,N
1499731595.5,286047012.8,N
1499731615.3,286047013.4,N
1499731635.1,286047012.7,N
1499731655.9,286047013.0,N
1499731675.7,286047012.8,N
1499731695.5,286047012.8,N
1499731715.4,286047012.8,N
1499731735.2,286047015.5,N
1499731755.0,286047013.0,N
1499731755.9,286047013.0,N
1499731775.8,286047012.9,N
1499731795.6,286047012.5,N
1499731815.5,286047012.6,N
1499731835.3,286047015.6,N
1499731855.1,286047012.6,N
1499731875.9,286047015.6,N
1499731895.7,286047012.6,N
1499731915.5,286047012.8,N
1499731935.4,286047013.4,N
1499731955.2,286047012.7,N
1499731975.1,286047011.2,N
1499731976.0,286047011.2,N
1499731995.8,286047011.7,N
1499732015.6,286047013.9,N
1499732035.5,286047012.8,N
1499732055.3,286047013.3,N
1499732075.1,286047013.3,N
1499732095.9,286047015.0,N
1499732115.7,286047012.6,N
1499732135.6,286047013.8,N
1499732155.4,286047013.2,N
1499732175.2,286047013.7,N
1499732195.1,286047013.9,Y
1499732196.0,286047011.9,Y
1499732215.8,286046989.6,Y
1499732235.7,286046976.9,Y
1499732255.5,286046963.6,Y
1499732275.3,286046950.2,Y
1499732295.2,286046940.3,Y
1499732315.0,286046926.9,Y
1499732315.9,286046926.9,Y
1499732335.8,286046904.6,Y
1499732355.6,286046894.0,Y
1499732375.4,286046881.6,Y
1499732395.3,286046870.6,Y
1499732415.1,286046860.7,Y
1499732435.9,286046852.4,Y
1499732455.7,286046842.2,Y
1499732475.5,286046834.7,Y
1499732495.4,286046824.4,Y
1499732515.2,286046816.5,Y
1499732535.1,286046808.1,Y
1499732536.0,286046808.1,Y
1499732555.8,286046795.8,Y
1499732575.7,286046789.0,Y
1499732595.5,286046786.4,Y
1499732615.3,286046779.1,Y
1499732635.2,286046775.8,Y
1499732655.0,286046773.1,Y
1499732655.9,286046773.1,Y
1499732675.8,286046768.7,Y
1499732695.6,286046766.8,Y
1499732715.4,286046767.5,Y
1499732735.3,286046764.7,Y
1499732755.1,286046765.0,Y
1499732775.9,286046769.2,Y
1499732795.7,286046770.6,Y
1499732815.6,286046771.2,Y
1499732835.4,286046776.9,Y
1499732855.2,286046779.2,Y
1499732875.1,286046784.9,Y
1499732876.0,286046784.9,Y
1499732895.8,286046796.4,Y
1499732915.7,286046799.7,Y
1499732935.5,286046808.4,Y
1499732955.3,286046815.4,Y
1499732975.2,286046823.6,N
1499732995.0,286046821.0,N
1499732995.9,286046821.0,N
1499733015.8,286046821.0,N
1499733035.6,286046823.4,N
1499733055.4,286046823.6,N
1499733075.3,286046823.6,N
1499733095.1,286046823.4,N
1499733115.8,286046823.4,N
1499733135.7,286046823.2,N
1499733155.5,286046823.2,N
1499733175.4,286046823.3,N
1499733195.2,286046823.1,N
1499733215.0,286046823.4,N
1499733215.9,286046823.4,N
1499733235.8,286046823.4,N
1499733255.6,286046823.2,N
1499733275.4,286046823.2,N
1499733295.3,286046820.9,N
1499733315.1,286046820.5,N
1499733335.9,286046823.3,N
1499733355.7,286046822.1,N
1499733375.5,286046822.8,N
1499733395.4,286046823.3,N
1499733415.2,286046822.1,N
1499733435.0,286046821.0,N
1499733435.9,286046821.0,N
1499733455.8,286046823.6,N
1499733475.6,286046822.7,N
1499733495.5,286046823.0,N
1499733515.3,286046822.7,N
1499733535.1,286046822.1,N
1499733555.9,286046825.1,N
1499733575.7,286046824.8,N
1499733595.5,286046824.5,N
1499733615.4,286046822.4,N
1499733635.2,286046822.3,N
1499733655.1,286046824.7,N
1499733656.0,286046824.7,N
1499733675.8,286046825.2,N
1499733695.6,286046822.5,N
1499733715.5,286046822.6,N
1499733735.3,286046824.6,N
1499733755.1,286046825.2,N
1499733775.9,286046824.8,N
1499733795.7,286046824.8,N
1499733815.6,286046822.4,N
1499733835.4,286046823.8,N
1499733855.2,286046822.6,N
1499733875.1,286046825.0,N
1499733876.0,286046825.0,N
1499733895.8,286046824.2,N
1499733915.6,286046824.1,N
1499733935.5,286046826.8,N
1499733955.3,286046826.7,N
1499733975.2,286046823.8,N
1499733995.9,286046826.4,N
1499734015.7,286046823.8,N
1499734035.6,286046826.6,N
1499734055.4,286046826.6,N
1499734075.2,286046826.0,N
1499734095.1,286046826.7,N
1499734096.0,286046826.7,N
1499734115.8,286046823.9,N
1499734135.7,286046824.1,N
1499734155.5,286046823.7,N
1499734175.3,286046824.1,N
1499734195.2,286046822.2,N
1499734215.0,286046823.9,N
1499734215.9,286046823.9,N
1499734235.7,286046824.0,N
1499734255.6,286046826.6,N
1499734275.4,286046823.7,N
1499734295.3,286046823.8,N
1499734315.1,286046824.3,N
1499734316.0,286046824.3,N
1499734335.8,286046824.8,N
1499734355.7,286046826.5,N
1499734375.5,286046826.8,N
1499734395.3,286046824.3,N
1499734415.2,286046825.0,N
1499734435.0,286046825.1,N
1499734435.9,286046825.1,N
1499734455.8,286046825.1,N
1499734475.6,286046824.8,N
1499734495.4,286046824.2,N
1499734515.3,286046826.6,N
1499734535.1,286046826.8,N
1499734555.8,286046826.6,N
1499734575.7,286046825.0,N
1499734595.5,286046825.2,N
1499734615.4,286046824.2,N
1499734635.2,286046826.6,N
1499734655.0,286046824.3,N
1499734655.9,286046824.3,N
1499734675.8,286046823.8,N
1499734695.6,286046824.1,N
1499734715.4,286046824.2,N
1499734735.3,286046824.0,N
1499734755.1,286046823.7,N
1499734775.9,286046826.7,N
1499734795.7,286046826.7,N
